Location: Arboyeti
(42.1122°N, 44.6017°E)
Time: 22:58:49
(UTC+00:00)

Daily predictions for brighter satellites

Satellite Brightness Start Highest point End
(mag) Time Altitude Azimuth Time Altitude Azimuth Time Altitude Azimuth
Cosmos 2344 3.8 16:05:08 10° S 16:12:15 42° ESE 16:19:15 10° NE
Ariane Rocket 4.1 16:11:19 10° ESE 16:15:30 27° ENE 16:19:42 10° N
Cosmos 1302 Rocket 4.0 16:12:46 10° NNW 16:18:06 82° ENE 16:23:22 10° SSE
CENTAUR R/B 3.9 16:10:42 10° NW 16:18:50 58° WSW 16:27:30 10° SSE
Cosmos 1269 Rocket 4.3 16:14:06 10° SSW 16:19:25 78° WNW 16:24:46 10° NNE
Cosmos 2322 Rocket 3.5 16:17:17 10° NW 16:22:39 44° WSW 16:28:00 10° S
USA 186 2.0 16:19:56 10° SSE 16:23:02 46° ENE 16:26:04 10° N
Cosmos 1825 Rocket 3.5 16:18:44 10° N 16:23:09 81° E 16:27:33 10° S
SJ-6B 3.4 16:20:29 10° SE 16:23:54 36° ENE 16:27:21 10° N
Resurs 01 Rocket 3.5 16:21:37 10° E 16:24:10 15° ENE 16:26:42 10° NNE
Cosmos 2297 Rocket 3.9 16:22:44 10° ESE 16:24:49 12° E 16:26:54 10° ENE
Cosmos 2034 Rocket 4.0 16:20:09 10° S 16:26:21 85° E 16:32:39 10° N
ATLAS 3B R/B 3.4 16:19:52 10° NNW 16:26:29 42° NE 16:33:13 10° ESE
Cosmos 1689 Rocket 3.2 16:24:03 10° N 16:26:47 46° WNW 16:29:30 10° SSW
Nadezhda 4 Rocket 4.0 16:22:31 10° N 16:28:52 84° E 16:35:07 10° S
Cosmos 2333 Rocket 2.4 16:23:42 10° NNW 16:29:23 57° ENE 16:35:00 10° SE
Cosmos 1892 2.7 16:27:28 10° N 16:31:13 61° E 16:34:57 10° SSE
Cosmos 1758 Rocket 4.4 16:27:55 10° NNW 16:32:18 55° W 16:36:40 10° S
Cosmos 44 3.6 16:28:50 10° S 16:33:41 51° ESE 16:38:50 10° NE
BREEZE M DEB (TANK) 3.8 16:21:06 10° SW 16:36:48 75° SSE 16:40:50 10° ENE
MetOp-A 4.1 16:31:39 10° SSE 16:36:59 79° ENE 16:42:22 10° N
Cosmos 909 Rocket 4.3 16:31:37 10° S 16:37:43 46° ESE 16:43:42 10° NE
Cosmos 1992 Rocket 4.2 16:34:09 10° N 16:39:15 52° ENE 16:44:11 11° SE
Cosmos 2322 3.7 16:33:49 10° NNW 16:39:29 71° ENE 16:45:07 10° SSE
CZ-4 R/B 4.1 16:36:48 10° SW 16:40:05 22° W 16:43:23 10° NW
Cosmos 1825 2.9 16:38:01 10° N 16:41:31 35° ENE 16:44:28 13° SE
Cosmos 1408 2.5 16:39:31 10° N 16:43:04 64° E 16:46:35 10° SSE
Cosmos 2026 Rocket 4.1 16:39:06 10° N 16:45:02 52° ENE 16:50:59 10° SSE
COSMOS 2487 3.0 16:43:52 10° SSW 16:47:13 59° WNW 16:50:36 10° NNE
SME Rocket 4.0 16:43:55 10° N 16:47:47 57° WNW 16:52:48 10° SSW
Meteor 2-1 Rocket 4.4 16:49:07 10° S 16:54:45 56° E 17:00:31 10° NNE
CZ-2C R/B 4.4 16:50:46 10° N 16:55:28 35° WNW 17:00:12 10° SW
FALCON 9 DEB 3.4 16:52:56 10° WSW 16:56:20 69° NW 16:59:46 10° NE
Cosmos 1627 Rocket 4.5 16:50:54 10° N 16:57:02 69° E 17:03:12 10° SSE
SL-16 R/B 4.3 16:55:18 10° NNE 16:57:10 11° NE 16:59:01 10° ENE
Helios 1A Rocket 4.4 16:54:47 10° SSW 16:58:33 36° W 17:02:22 10° NNW
SL-4 R/B 3.7 16:55:40 10° S 16:57:43 17° SE 16:57:43 17° SE
Cosmos 1818 3.5 16:53:27 10° SSW 16:58:50 72° ESE 17:04:18 10° NE
SL-8 R/B 3.9 16:54:19 10° WNW 16:59:08 64° NNE 17:02:29 19° E
Cosmos 1634 Rocket 4.0 16:54:35 10° S 17:00:50 73° E 17:07:04 10° NNE
Cosmos 2360 Rocket 3.7 16:57:49 10° NW 17:02:55 35° WSW 17:07:58 10° S
RESURS DK-1 2.5 17:02:00 10° SSW 17:06:07 76° WNW 17:10:16 10° NNE
COSMOS 2428 2.7 17:04:21 10° NNW 17:10:08 84° ENE 17:14:29 18° SSE
BREEZE-M DEB (TANK) 4.2 17:07:39 10° W 17:11:26 53° N 17:24:07 10° ENE
ARIANE 5 R/B 4.2 17:17:19 18° ENE 17:18:02 19° ENE 17:21:07 10° NNE
Cosmos 1140 Rocket 4.2 17:16:59 26° SE 17:18:37 31° E 17:23:06 10° NE
Cosmos 2219 Rocket 2.4 17:13:49 10° NNW 17:19:29 70° WSW 17:24:02 16° SSE
Cosmos 1356 3.6 17:17:00 10° N 17:20:21 51° ENE 17:21:02 42° ESE
Cosmos 2058 3.0 17:16:59 10° N 17:21:11 80° W 17:24:11 18° S
Cosmos-2242 4.2 17:24:04 25° E 17:24:04 25° E 17:27:24 10° NNE
IRIDIUM 106 4.4 17:21:35 21° SSE 17:25:00 57° E 17:30:07 10° N
Cosmos 1455 3.6 17:23:02 10° SSW 17:26:33 38° WNW 17:30:04 10° N
Cosmos 1633 3.6 17:24:15 10° NNE 17:27:14 29° ENE 17:27:14 29° ENE
ATLAS 5 CENTAUR R/B 1.6 17:26:38 10° NW 17:28:28 42° SW 17:28:42 40° SSW
USA 245 4.4 17:29:40 26° ENE 17:29:40 26° ENE 17:32:31 10° NNE
OBJECT-B 2.9 17:28:35 10° SSW 17:31:19 26° W 17:34:06 10° NW
Exosat Rocket 3.8 17:28:06 10° NNW 17:34:19 77° WSW 17:37:20 26° SSE
Cosmos 1655 Rocket 4.3 17:28:48 10° N 17:34:52 47° ENE 17:37:19 32° SE
ATLAS 2AS CENTAUR R/B 4.2 17:29:27 10° WSW 17:36:55 43° NW 17:44:15 10° NNE
Abrixas rocket 4.4 17:38:45 10° W 17:38:59 12° WNW 17:38:59 12° WNW
Cosmos 2151 3.3 17:36:25 10° N 17:40:34 44° ENE 17:40:56 43° E
BREEZE-M DEB (TANK) 4.0 17:41:12 10° W 17:43:23 20° SSW 17:43:53 19° SSW
Cosmos 1076 Rocket 3.5 17:42:46 10° N 17:47:08 81° W 17:48:33 42° S
Landsat 7 3.7 17:45:57 43° SSE 17:47:28 77° ENE 17:52:14 10° N
SPOT 1/Viking Rocket 3.7 17:46:17 42° ESE 17:47:42 55° ENE 17:52:48 10° N
Cosmos 2237 Rocket 2.2 17:42:11 10° NNW 17:47:47 63° ENE 17:49:31 42° SE
Cosmos 405 Rocket 3.1 17:44:11 10° NNW 17:48:09 63° W 17:49:25 39° SSW
NOSS 0 Rocket 3.9 17:42:16 10° NNW 17:48:31 86° WSW 17:51:23 35° SSE
Cosmos 1190 Rocket 4.0 17:49:39 43° SSE 17:50:54 54° ESE 17:56:00 10° NNE
MetOp-B 4.0 17:49:44 40° SSE 17:51:41 77° ENE 17:57:03 10° N
Lacrosse 5 rocket 4.4 17:50:38 10° NNW 17:51:49 11° N 17:53:01 10° NNE
Cosmos 1812 Rocket 3.5 17:49:58 31° SSW 17:52:04 83° W 17:56:33 10° N
COSMOS 2455 4.0 17:54:43 25° ENE 17:54:43 25° ENE 17:58:03 10° NE
Meteor 2-21 4.3 17:46:50 10° N 17:52:54 74° E 17:55:18 38° SSE
Cosmos 389 Rocket 3.3 17:52:17 28° SW 17:53:50 50° WNW 17:57:18 10° N
Ariane Rocket 4.2 17:49:58 12° SSW 17:54:17 37° W 17:58:58 10° NNW
SPOT 3 Rocket 3.6 17:52:10 33° S 17:54:32 76° WSW 17:59:45 10° NNW
IGS 5A 3.6 17:57:55 51° SSW 17:58:49 69° W 18:02:58 10° NNW
Resurs 01 Rocket 2.1 17:58:33 35° SSW 18:00:10 57° W 18:04:34 10° NNW
Cosmos 2227 Rocket 2.1 17:58:41 38° S 18:00:44 62° ESE 18:06:20 10° NNE
Cosmos 2292 Rocket 4.4 17:54:20 10° N 18:01:02 71° W 18:03:28 33° SSW
CARTOSAT-1 4.0 18:06:42 46° NE 18:06:42 46° NE 18:10:28 10° N
Cosmos 2297 Rocket 2.1 18:02:19 10° SSW 18:07:58 89° WNW 18:13:40 10° NNE
Cosmos 2219 3.1 18:08:06 20° SSW 18:12:07 89° ESE 18:17:47 10° NNE
BREEZE-M DEB (TANK) 4.2 18:10:08 10° NW 18:11:08 22° NNW 18:11:08 22° NNW
Cosmos 2333 Rocket 4.3 18:08:58 10° NW 18:13:10 21° W 18:17:20 10° SSW
USA 215 3.3 18:13:39 44° ESE 18:15:50 72° NE 18:22:21 10° NW
ATLAS 3B R/B 3.4 18:10:33 10° NW 18:17:18 48° WSW 18:20:30 30° S
Meteor 2-8 Rocket 4.3 18:30:31 68° SE 18:31:08 74° E 18:37:15 10° NNE
ERS-1 Rocket 3.0 18:34:29 70° NE 18:34:29 70° NE 18:39:08 10° N
Genesis I 4.4 18:30:43 10° NNW 18:33:31 42° NNW 18:33:31 42° NNW
SL-16 R/B 2.3 18:36:52 10° NNW 18:42:20 61° NE 18:42:20 61° NE
Cosmos 1980 4.4 18:37:44 10° NW 18:43:07 44° WSW 18:43:56 41° SW
Cosmos 2266 Rocket 4.5 18:41:41 10° NNW 18:47:54 56° W 18:49:30 44° SW
SPOT 5 3.3 18:49:20 56° NNW 18:49:20 56° NNW 18:53:05 10° NNW
Terra 2.5 18:54:23 51° N 18:54:23 51° N 18:57:59 10° N
Cosmos 1954 Rocket 4.2 18:54:21 66° NW 18:54:21 66° NW 18:59:10 10° NNE
ARIANE 5 R/B 3.7 18:54:52 40° WNW 18:54:52 40° WNW 18:58:23 10° NNW
Nadezhda 2 Rocket 4.4 18:56:54 10° N 19:02:52 78° NE 19:02:52 78° NE
BREEZE-M DEB (TANK) 4.2 19:01:26 10° WNW 19:07:56 45° NNW 19:07:56 45° NNW
Cosmos 2237 Rocket 4.2 19:27:31 10° WNW 19:31:15 18° W 19:31:22 18° W
Lacrosse 5 rocket 4.0 19:29:47 10° NNW 19:32:32 16° NNE 19:32:32 16° NNE
Cosmos 1553 Rocket 4.3 19:34:37 61° N 19:34:37 61° N 19:39:35 10° N
COSMOS 2455 3.7 19:37:45 44° WNW 19:38:34 46° NW 19:44:23 10° NNE
Cosmos 2263 Rocket 3.7 19:44:12 28° NE 19:44:12 28° NE 19:46:47 10° NNE
Cosmos 2227 Rocket 4.3 19:40:56 10° W 19:45:14 22° NW 19:49:35 10° N
NOSS 3-1 (C) 4.0 19:49:49 10° NW 19:57:20 87° N 19:57:20 87° N
SL-16 R/B 4.4 20:22:11 10° NW 20:24:13 16° WNW 20:24:13 16° WNW
SeaSat 1 4.4 20:38:24 10° N 20:41:25 25° NNW 20:41:25 25° NNW
USA 281 3.9 20:55:18 48° NE 20:55:18 48° NE 21:00:59 10° NNW
SL-16 R/B 4.4 21:17:59 19° ENE 21:19:33 21° ENE 21:24:00 10° NNE
Cosmos 2263 Rocket 4.2 21:25:51 20° NW 21:25:51 20° NW 21:29:42 10° N
Cosmos 1844 Rocket 4.0 21:40:47 36° N 21:40:47 36° N 21:44:09 10° NNE
Cosmos 1833 Rocket 4.0 21:59:42 10° N 22:04:50 34° ENE 22:05:07 34° ENE
Resurs 1-4 Rocket 3.6 22:00:28 10° NNE 22:03:46 31° ENE 22:03:46 31° ENE
Cosmos 2341 Rocket 4.4 22:00:29 10° N 22:05:43 60° NNE 22:05:43 60° NNE
USA 234 4.3 22:07:09 10° ENE 22:11:41 33° E 22:11:41 33° E
CZ-2D R/B 3.2 22:11:01 10° NNE 22:15:02 40° ENE 22:15:02 40° ENE
Cosmos 2278 Rocket 3.2 22:20:37 40° ENE 22:20:37 40° ENE 22:24:40 10° NE
SL-8 Rocket 4.3 22:14:11 10° N 22:19:39 65° NNE 22:19:39 65° NNE
Gbstr 26 Del rocket 4.3 22:26:54 55° NE 22:26:54 55° NE 22:31:03 10° NE
SJ 16-02 3.2 22:33:40 29° NNE 22:33:40 29° NNE 22:35:52 10° NNE
COSMOS 2406 3.7 22:33:10 10° NNW 22:38:04 58° NNE 22:38:04 58° NNE
ADEOS II 3.3 22:35:33 10° NNE 22:39:59 35° E 22:39:59 35° E
ATLAS 5 CENTAUR R/B 2.9 22:38:24 10° NNW 22:43:58 57° NE 22:47:27 27° ESE
NPP 3.9 22:48:59 10° NNE 22:53:36 66° NNE 22:53:36 66° NNE
CZ-4C R/B 3.7 22:48:19 10° NNW 22:55:20 50° NE 23:03:24 10° ESE
Cosmos 2218 Rocket 4.1 22:50:08 10° NNW 22:55:28 63° NW 22:55:28 63° NW
SL-16 R/B 2.5 23:03:04 67° WNW 23:03:04 67° WNW 23:08:47 10° NNW
IDEFIX/ARIANE 42P 4.0 23:00:57 10° NE 23:05:29 29° E 23:06:37 27° ESE
Cosmos 2366 rocket 4.2 23:00:00 10° NNW 23:05:12 56° WNW 23:05:12 56° WNW
AQUA 4.4 23:01:40 10° NNE 23:05:23 55° NNE 23:05:23 55° NNE
SL-19 R/B 4.3 23:00:32 10° NNE 23:06:43 83° WNW 23:06:43 83° WNW
Milstar 3 4.2 23:11:19 25° SSE 23:11:19 25° SSE 23:17:09 10° ESE
Meteor 1-19 Rocket 4.4 23:10:56 62° NW 23:10:56 62° NW 23:15:52 10° N
NOSS 3-3 (A) 3.8 23:11:03 70° WNW 23:11:10 70° NW 23:17:40 10° NNE
NOSS 3-3 (C) 3.8 23:11:09 70° WNW 23:11:15 70° NW 23:17:45 10° NNE
IRS-1D 3.8 23:07:58 10° NNE 23:13:05 59° E 23:13:13 59° ESE
Cosmos 1821 Rocket 4.2 23:08:09 10° N 23:14:29 70° E 23:16:21 47° SSE
SL-08 R/B 4.3 23:09:39 10° N 23:15:48 87° W 23:16:15 78° S
BREEZE-M R/B 4.5 23:16:46 33° NW 23:18:00 40° N 23:25:17 10° ENE
Meteor 2-4 Rocket 3.7 23:25:08 76° SSW 23:25:38 85° W 23:31:35 10° N
Cosmos 1378 4.5 23:30:50 37° ENE 23:30:50 37° ENE 23:33:45 10° NNE
DELTA 2 R/B (1) 3.6 23:31:19 63° SSE 23:31:19 63° SSE 23:36:25 10° E
Cosmos 1908 Rocket 4.4 23:27:52 10° NNW 23:30:59 44° NNW 23:30:59 44° NNW
Nadezhda 3 Rocket 3.9 23:31:05 60° SSW 23:32:22 87° W 23:38:44 10° N
Helios 1B rocket 4.4 23:32:07 10° NNW 23:34:01 20° NW 23:34:01 20° NW
SL-4 R/B 3.1 23:35:26 15° NW 23:39:15 52° NNE 23:43:55 10° ESE
CZ-4B R/B 4.3 23:35:21 10° NNE 23:39:52 42° E 23:41:24 32° SE
Cosmos 2082 Rocket 2.0 23:34:54 10° NNW 23:40:33 83° WSW 23:42:06 50° SSE
ADEOS Rocket 3.2 23:37:32 24° SSE 23:41:40 80° ENE 23:48:44 10° NNW
Cosmos 1680 Rocket 3.4 23:37:02 10° NNW 23:42:22 82° WSW 23:43:12 63° S
Resurs 1-4 Rocket 3.3 23:40:35 10° N 23:44:51 28° WNW 23:44:51 28° WNW
IKONOS-2 4.5 23:46:01 78° NNW 23:46:01 78° NNW 23:50:01 10° NNW
Spot 1 4.0 23:46:44 76° NNW 23:46:44 76° NNW 23:50:42 10° NNW
Cosmos 2084 3.5 23:47:30 71° E 23:47:30 71° E 23:51:31 10° NE
Cosmos 1833 Rocket 3.8 23:43:38 10° NW 23:46:45 28° WNW 23:46:45 28° WNW
SL-08 R/B 4.4 23:46:06 10° SE 23:50:45 45° ENE 23:55:21 10° N
X-37B 2.2 23:52:19 33° ENE 23:52:19 33° ENE 23:54:14 10° ENE
